weather.gov     
National Weather Service

Regional Weather Roundup
NWS Homepage
This page is being discontinued on March 12, 2014.
The same data is available at this site. Please update your bookmarks.
Thank you, and we apologize for the inconvenience.
Please send an email to SR-SRH.Webmaster@noaa.gov with any concerns.


Current Version
Previous Version:    01  02  03  04  05  06  07  08  09  10  11  12  13  14  15  16  17  18  19  20  21  22  23  24  25  26  27  28  29  30  
   31  32  33  34  35  36  37  38  39  40  41  42  43  44  45  46  47  48  49  50  51  52  53  54  
[Printable]
305
ASUS45 KPSR 221310
RWRAZ

ARIZONA REGIONAL HOURLY WEATHER ROUNDUP
NATIONAL WEATHER SERVICE PHOENIX AZ
600 AM MST MON DEC 22 2014

NOTE: FAIR INDICATES FEW OR NO CLOUDS BELOW 12,000 FEET WITH NO
SIGNIFICANT WEATHER AND/OR OBSTRUCTIONS TO VISIBILITY.

AZZ001>003-036-221400-
NORTHWEST ARIZONA

CITY           SKY/WX    TMP DP  RH WIND       PRES   REMARKS
BULLHEAD CITY  CLEAR     48  45  87 CALM      30.06S
KINGMAN        CLEAR     35  32  88 S3        30.09R
$$

AZZ004>008-015-016-018-221400-
NORTH CENTRAL ARIZONA

CITY           SKY/WX    TMP DP  RH WIND       PRES   REMARKS
GRAND CANYON   PTCLDY    23  22  96 CALM      30.09S
PRESCOTT       MOCLDY    42  32  67 W8        30.08R
FLAGSTAFF      PTCLDY    40  30  67 NW6       30.08R
PAYSON         PTCLDY    39  34  81 CALM      30.04S
PAGE           PTCLDY    37  31  78 CALM      29.97F
$$

AZZ009>014-017-221400-
NORTHEAST ARIZONA

CITY           SKY/WX    TMP DP  RH WIND       PRES   REMARKS
WINSLOW        PTCLDY    29  28  96 S3        30.01F
SAINT JOHNS    MOCLDY    34  30  85 CALM      30.02S
WINDOW ROCK    CLEAR     30  26  85 CALM      30.01R
SHOW LOW       PTCLDY    34  28  80 CALM      30.06F
$$

AZZ023-221400-
GREATER PHOENIX AREA

CITY           SKY/WX    TMP DP  RH WIND       PRES   REMARKS
PHOENIX        MOCLDY    48  43  82 E7        30.00S
BUCKEYE          N/A     41  41 100 CALM      30.03R
GLENDALE       PTCLDY    46  46 100 CALM      30.03
LUKE AFB       MOCLDY    43  43 100 CALM      30.01S
DEER VALLEY    MOCLDY    45  40  82 CALM      30.00F
SCOTTSDALE     MOCLDY    46  40  79 CALM      30.01F
MESA-FALCON    PTCLDY    45  41  87 NE6       30.00
MESA-GATEWAY   CLEAR     43  39  87 E5        30.02F
CHANDLER       CLEAR     43  41  93 CALM      30.01
$$

AZZ027-028-221400-
SOUTHWEST MARICOPA COUNTY AND PINAL COUNTY

CITY           SKY/WX    TMP DP  RH WIND       PRES   REMARKS
CASA GRANDE    MOCLDY    43  37  81 MISG      30.02S
$$

AZZ503-504-507>509-221400-
SOUTHEAST ARIZONA

CITY           SKY/WX    TMP DP  RH WIND       PRES   REMARKS
TUCSON         PTCLDY    42  37  82 SE7       30.04S
DAVIS-MONTHAN  PTCLDY    40  37  89 SE6       30.02S
RYAN FIELD       N/A     41  41 100 CALM      30.04
NOGALES        PTCLDY    37  32  82 CALM      30.03S
SIERRA VISTA   CLEAR     41  33  73 SW5       30.04S
DOUGLAS        MOCLDY    32  28  85 CALM      30.04S
SAFFORD        MOCLDY    39  35  86 E7        30.00R WCI  34
$$

AZZ020-021-025-026-031-221400-
SOUTHWEST ARIZONA

CITY           SKY/WX    TMP DP  RH WIND       PRES   REMARKS
YUMA           MOCLDY   N/A N/A N/A CALM      30.01S
$$

CAZ031-033-041-043-047-048-061-221400-
SOUTHERN CALIFORNIA

CITY           SKY/WX    TMP DP  RH WIND       PRES   REMARKS
DOWNTOWN L.A.  CLEAR     50  47  89 CALM      30.03F FOG
L.A. AIRPORT   PTCLDY    52  50  93 CALM      30.03F FOG
SAN DIEGO      PTCLDY    54  50  86 CALM      30.05R
BURBANK        CLEAR     50  44  80 CALM      30.02F
ONTARIO        CLEAR     49  44  83 N6        30.04S HAZE
RIVERSIDE      CLEAR     47  43  86 E3        30.03F
PALM SPRINGS   CLEAR     51  44  77 NW6       30.03F
EL CENTRO NAS  PTCLDY    44  40  85 CALM      30.02R
IMPERIAL       PTCLDY    46  43  89 W5        30.01S
BLYTHE         PTCLDY    46  44  93 CALM      30.03S
NEEDLES        CLEAR     46  39  76 W6        30.06R
$$

NVZ020-UTZ003-221400-
SOUTHERN NEVADA-UTAH

CITY           SKY/WX    TMP DP  RH WIND       PRES   REMARKS
LAS VEGAS      PTCLDY    45  37  73 S14       30.02F
SALT LAKE CITY LGT RAIN  38  37  97 S9        30.00S FOG     WCI  31
$$

NMZ009-TXZ055-221400-
NEW MEXICO-WEST TEXAS

CITY           SKY/WX    TMP DP  RH WIND       PRES   REMARKS
ALBUQUERQUE    PTCLDY    40  31  70 SW8       29.91S WCI  34
EL PASO        MOCLDY    54  31  41 W8        29.90R
$$


........................KEY........................
SKY/WX - SKY CONDITION/WEATHER
TMP    - TEMPERATURE IN FAHRENHEIT
DP     - DEW POINT IN FAHRENHEIT
RH     - RELATIVE HUMIDITY IN PERCENT
WIND   - DIRECTION AND SPEED IN MILES PER HOUR (MPH)
VRB    - VARIABLE WIND DIRECTION
PRES   - MEAN SEA LEVEL PRESSURE IN INCHES OF MERCURY
         F - FALLING PRESSURE   R - RISING PRESSURE
         S - STEADY PRESSURE
VSB    - VISIBILITY IN MILES
HX     - HEAT INDEX IN FAHRENHEIT
WCI    - WIND CHILL INDEX IN FAHRENHEIT
TC     - TEMPERATURE IN CELSIUS WHICH IS ALSO KNOWN AS
         TEMPERATURE IN CENTIGRADE
AFB    - AIR FORCE BASE
         LUKE AFB IS LUKE AIR FORCE BASE
         DAVIS-MONTHAN IS DAVIS-MONTHAN AIR FORCE BASE
NAS    - NAVAL AIR STATION
         EL CENTRO NAS IS EL CENTRO NAVAL AIR STATION
N/A    - NOT AVAILABLE




U.S. Dept. of Commerce
NOAA National Weather Service
1325 East West Highway
Silver Spring, MD 20910
E-mail: w-nws.webmaster@noaa.gov
Page last modified: May 16, 2007
NATIONAL WEATHER SERVICE: for Safety, for Work, for Fun - FOR LIFE